Theta_e
327 327 327 327 327 326 326 325 325 326 326 326 327 328 329 328 328 328 328 327 328 328 328 328 328 327 327 327 326 327 325 318 316 313 309 313 313 323 325 335 330 330 328 311 309 308 306 306 306 308 311 311 308 308 308 309 306 311 304 302 299 300 299 302 300 301 302 301 300 298 303 305 301 300 302 303 303 304 304 304 307 308 312 318 319 318 321 327
327 326 327 327 326 326 325 325 325 325 325 326 326 328 328 327 327 327 328 327 327 328 328 328 327 327 327 326 327 327 321 314 311 311 309 318 321 326 328 327 337 336 321 310 307 306 305 305 305 307 308 307 308 307 306 307 306 306 303 303 299 300 301 302 302 302 301 302 301 301 303 305 304 303 302 302 302 303 303 304 305 308 312 315 317 318 321 323
326 326 326 326 326 325 325 325 325 325 325 326 326 327 327 327 327 327 327 327 327 327 327 327 327 326 326 326 327 325 316 311 306 303 308 325 325 330 330 331 336 332 313 309 308 307 306 306 306 307 307 306 306 305 307 304 306 302 305 300 302 305 300 299 300 301 299 302 300 300 301 301 302 304 303 302 302 302 302 303 303 305 307 312 318 316 321 324
326 326 325 326 325 325 324 324 324 325 325 325 326 327 326 326 326 326 326 326 326 327 327 326 327 327 327 328 328 322 317 305 299 303 307 327 326 329 333 336 338 330 309 306 305 307 303 304 305 307 306 305 304 305 303 304 304 303 303 302 303 301 301 300 299 300 298 299 302 301 299 300 299 302 303 302 301 301 303 306 305 305 307 311 318 317 321 324
326 325 325 325 325 325 324 325 324 324 324 325 326 326 325 326 326 326 325 325 326 326 327 326 326 327 328 328 324 317 307 298 302 304 311 332 334 329 331 336 335 315 310 304 305 304 304 304 303 305 306 302 304 304 304 302 302 304 300 299 299 298 302 298 299 297 298 297 302 300 300 301 301 300 302 303 300 301 304 306 307 308 309 314 317 318 322 323
325 325 324 325 325 325 324 324 324 324 324 324 324 325 325 325 325 325 325 325 325 326 325 326 326 327 327 325 321 315 304 294 305 312 325 336 337 334 333 336 327 308 304 305 307 305 304 303 303 302 301 302 302 301 302 301 300 301 299 298 298 298 300 297 297 296 297 299 300 300 302 301 301 301 301 303 303 303 302 301 303 305 310 319 320 320 321 322
324 324 323 324 324 324 324 325 324 323 323 324 324 324 325 325 325 324 324 324 324 325 325 325 325 327 325 322 317 310 302 303 305 315 328 338 337 335 335 330 320 305 306 304 304 304 304 303 303 302 299 300 300 301 299 301 301 302 301 298 298 297 298 295 297 294 296 299 301 302 301 301 300 299 299 300 305 303 302 303 302 301 315 319 319 320 321 322
323 323 322 323 324 324 324 324 324 323 323 323 323 324 324 323 324 324 324 324 324 324 324 325 325 325 323 316 306 303 303 301 306 316 333 332 329 327 320 312 307 307 306 305 304 304 303 302 301 302 301 299 300 301 300 300 301 301 299 298 297 297 295 294 295 295 296 297 297 299 300 300 300 300 297 300 304 303 304 310 311 313 316 318 320 320 323 324
323 322 322 322 323 323 323 323 323 323 323 323 323 323 323 323 323 323 323 323 323 323 323 325 325 324 322 312 304 300 298 313 310 318 328 318 313 309 310 308 307 306 306 305 305 305 304 302 302 303 299 299 298 300 297 301 299 301 299 298 297 297 296 295 295 295 296 297 297 299 299 297 297 297 299 303 303 302 306 309 311 314 314 317 319 320 322 323
323 323 322 322 322 322 322 322 323 323 323 323 323 322 322 322 322 322 322 322 322 323 323 324 325 323 315 307 303 295 302 310 317 323 321 311 307 308 308 308 306 306 305 303 303 304 303 303 303 303 302 299 299 298 297 299 299 300 298 298 298 296 297 297 297 296 297 298 296 299 298 298 297 297 299 301 300 299 304 308 310 313 314 316 319 319 321 322
323 322 322 321 321 321 322 322 323 323 322 322 322 321 321 321 321 321 321 322 322 322 322 323 325 321 310 304 299 297 310 313 312 316 317 309 307 307 306 305 306 307 307 302 304 305 306 305 304 303 301 300 300 295 297 298 300 300 298 299 298 298 298 297 298 296 299 297 297 300 297 298 298 297 300 301 299 299 303 305 308 310 313 316 318 318 320 321
323 323 322 321 321 321 323 323 322 322 322 322 322 320 320 320 320 320 320 321 321 321 322 323 324 317 304 301 299 301 307 313 311 312 313 309 307 308 308 306 305 307 307 303 305 308 306 306 304 302 297 302 298 298 298 298 301 299 300 298 297 298 298 298 298 298 298 298 298 300 298 296 296 298 302 298 298 300 302 304 306 308 311 315 317 317 318 319
322 321 321 321 321 321 322 322 322 322 321 321 320 320 320 320 319 319 319 320 320 321 322 322 322 315 304 296 300 306 311 311 309 309 307 308 306 306 307 307 306 305 307 306 305 308 305 305 305 301 299 300 298 297 299 300 297 298 299 299 296 298 297 297 297 298 298 298 297 297 294 297 297 300 298 297 298 301 302 303 305 307 309 310 314 315 317 318
321 321 321 321 321 321 322 322 321 321 321 320 319 319 319 319 318 319 319 319 321 321 321 323 320 312 303 298 303 308 310 311 309 309 307 307 307 307 306 307 307 306 309 308 306 305 303 302 304 301 302 300 298 299 299 297 298 298 296 298 298 295 295 297 297 298 298 297 297 297 295 297 298 299 299 297 298 300 302 303 304 307 308 309 310 312 314 317
321 320 320 320 320 320 320 321 321 320 320 319 319 319 319 318 318 319 319 319 320 322 322 320 317 306 298 299 303 313 317 310 308 309 309 306 305 305 304 306 304 305 305 308 306 303 304 307 305 301 299 297 300 298 294 295 295 296 295 293 295 295 296 296 298 297 297 298 298 297 295 298 299 297 296 297 298 299 301 303 303 303 305 307 308 309 312 314
321 320 320 320 320 320 320 320 320 321 320 319 318 318 318 318 318 319 319 319 321 321 319 314 311 305 298 296 302 320 309 306 308 310 308 307 310 305 305 303 304 305 306 303 304 305 306 306 301 299 298 298 298 298 295 294 295 294 295 296 293 294 295 294 296 297 296 297 298 297 296 296 297 299 297 297 299 299 300 301 302 302 302 304 305 307 308 310
320 320 320 320 320 320 320 319 320 320 319 318 318 318 318 318 318 319 319 320 320 318 316 306 309 304 295 300 310 306 305 306 305 309 308 306 305 304 305 305 303 302 304 304 306 307 305 303 298 299 299 297 297 299 294 292 291 293 295 294 296 293 293 293 295 297 298 297 296 297 295 297 299 299 298 296 298 299 300 301 302 303 302 302 303 304 304 306
320 320 319 319 319 319 319 319 319 319 318 317 317 316 315 318 320 318 316 316 317 316 310 310 310 299 296 300 298 301 305 305 307 307 306 303 304 305 304 301 299 302 303 302 304 302 303 299 300 297 297 296 294 296 292 288 291 291 292 292 291 290 292 293 294 295 296 296 297 296 295 297 299 300 299 298 298 298 300 301 302 303 302 302 302 302 303 304
320 319 319 319 319 318 318 319 319 319 318 317 317 318 318 318 316 316 312 311 301 297 295 298 297 290 290 296 301 303 304 308 307 307 304 305 302 303 303 303 304 302 300 299 298 300 301 300 300 297 293 294 294 295 294 295 295 294 294 294 294 291 291 290 293 293 295 296 295 296 295 297 299 300 301 300 297 298 299 300 300 300 301 301 302 303 304 304
319 319 319 319 318 318 318 319 319 318 318 315 313 313 311 304 304 302 307 303 299 298 299 300 299 296 295 299 302 304 306 307 304 304 305 305 304 303 300 301 303 301 298 296 298 298 301 296 293 293 295 295 296 296 295 294 296 296 296 294 292 294 292 291 292 294 293 295 296 297 297 297 298 300 301 301 298 298 298 299 300 302 302 303 303 303 305 305
319 319 319 318 318 318 319 319 319 318 317 314 312 305 297 298 294 293 300 301 302 298 299 301 300 300 299 302 303 303 302 301 304 303 305 305 303 303 298 300 299 296 296 295 298 297 298 294 294 296 296 296 296 294 293 293 294 294 293 293 292 294 293 293 294 294 294 294 295 293 294 296 297 299 301 302 299 298 299 300 301 302 303 304 305 305 306 306
318 318 318 318 318 318 319 319 318 317 316 314 310 299 298 302 302 307 302 293 298 300 300 301 301 302 303 304 306 304 305 300 301 303 306 304 302 299 297 299 297 295 294 295 296 295 294 292 295 296 293 294 293 293 294 295 292 293 293 293 293 292 294 293 293 293 294 292 294 292 293 296 298 299 301 301 300 301 302 302 303 303 304 304 304 305 306 306
318 318 318 318 318 319 319 318 318 316 312 308 304 299 301 307 308 307 306 300 296 298 299 298 299 299 302 304 305 304 300 298 297 301 303 306 299 299 298 297 296 294 292 295 293 293 290 294 296 294 294 294 292 292 294 294 295 294 293 292 291 295 292 291 293 293 292 293 295 294 293 296 300 301 301 302 302 301 302 302 302 302 302 304 304 305 305 306
318 318 318 318 318 318 318 317 316 312 309 308 304 303 306 309 307 303 305 295 293 296 299 299 300 300 301 301 306 303 300 297 300 298 304 301 299 299 298 297 294 294 293 293 295 293 292 292 289 291 294 295 292 292 293 294 292 294 296 295 294 290 292 294 293 292 291 291 291 294 294 295 299 298 299 300 295 294 297 298 298 299 301 303 305 303 303 302
317 317 317 318 317 318 316 315 310 308 309 308 305 309 307 307 307 306 301 294 295 295 299 299 306 304 303 308 305 301 299 299 300 301 302 302 295 297 297 295 296 293 295 293 294 294 292 290 289 290 292 294 293 291 294 296 292 293 295 296 295 295 292 290 292 293 293 293 293 293 289 291 296 295 297 300 297 298 298 297 300 301 302 301 299 301 304 304
317 317 317 317 318 317 316 308 306 309 306 304 308 309 307 307 308 305 300 291 287 293 297 292 304 297 311 302 306 303 301 297 300 301 301 301 301 298 294 294 295 293 292 292 293 294 291 287 290 292 292 293 294 293 295 296 293 291 293 295 295 295 295 294 293 295 289 288 292 290 289 288 296 296 297 296 295 297 299 299 300 301 302 300 300 301 301 301
317 317 317 317 317 316 308 302 309 309 302 305 310 308 305 308 310 303 296 288 285 294 291 297 297 299 307 303 304 302 290 294 301 301 301 302 299 299 297 293 293 293 293 295 292 290 289 289 291 294 293 293 293 290 292 294 294 291 293 293 295 295 294 295 295 295 292 291 291 291 293 289 290 296 298 293 293 297 299 300 301 301 301 299 299 299 300 300
317 317 317 317 316 315 309 307 306 303 304 307 310 309 308 308 307 301 295 279 280 297 292 292 298 306 305 302 303 298 297 302 296 299 300 301 299 298 298 294 295 294 291 294 287 292 290 288 291 291 293 292 292 294 296 296 294 292 289 294 295 296 297 296 296 292 292 291 289 291 295 288 288 295 294 293 294 297 298 299 301 302 301 299 301 300 301 300
317 317 317 316 315 313 311 308 306 303 308 307 308 309 308 306 302 297 288 279 292 291 306 293 306 302 299 300 298 297 297 298 295 298 300 299 300 298 295 296 295 293 292 293 292 290 291 292 292 294 292 291 293 288 292 297 294 290 291 293 292 293 293 295 293 292 290 288 287 290 291 287 289 297 295 294 294 296 299 300 300 300 300 303 303 302 301 300
317 317 316 316 312 310 310 310 307 309 306 306 307 308 306 302 297 289 282 277 295 287 294 296 296 294 299 295 295 296 296 296 296 297 299 298 298 299 294 297 295 294 294 296 295 292 291 292 291 292 292 293 290 290 291 292 293 293 295 294 293 293 292 291 292 290 289 284 287 286 286 287 286 295 295 295 296 298 299 300 297 298 301 300 301 301 302 301
317 317 315 313 308 309 308 304 308 307 307 308 309 309 304 299 291 284 277 286 296 291 293 292 292 299 295 293 291 293 296 295 295 297 295 297 295 296 295 294 297 294 293 295 292 294 292 292 293 292 290 291 294 292 292 291 293 296 294 293 293 291 293 291 289 290 285 284 285 284 286 287 284 290 296 298 295 292 294 297 298 299 300 302 302 300 299 299
316 316 315 312 311 311 305 303 308 307 307 310 310 304 296 286 289 282 281 295 285 288 290 290 294 295 294 296 295 293 293 294 296 296 294 294 293 292 293 290 293 286 286 288 288 293 291 292 292 293 293 292 295 293 291 291 292 294 294 293 289 285 286 283 286 282 283 284 285 286 286 285 285 292 296 295 295 296 295 297 300 299 299 302 302 302 300 300
316 314 314 313 310 309 311 309 307 306 307 309 306 299 292 286 277 287 285 288 285 292 289 295 291 293 295 293 292 293 295 292 295 294 296 295 294 294 295 293 296 294 285 290 289 289 289 292 291 293 294 294 296 291 288 288 292 292 292 290 287 283 281 280 282 282 282 284 284 285 288 283 291 294 297 297 298 297 297 297 298 298 298 300 302 301 299 302
315 314 311 310 311 312 310 309 308 307 306 307 300 294 291 283 282 293 288 288 288 290 293 292 292 294 293 290 292 295 291 292 294 293 295 292 293 290 291 290 290 290 293 289 287 288 284 284 289 292 290 296 293 295 294 293 292 292 298 295 289 288 283 279 281 280 282 284 283 286 283 286 287 292 295 296 295 294 295 294 295 295 296 297 297 297 298 300
314 312 310 311 311 309 309 310 308 309 308 303 295 291 283 282 289 287 287 288 287 290 290 294 292 291 290 291 291 295 295 290 294 293 292 291 289 291 290 291 291 295 295 287 290 288 287 289 289 290 290 290 294 294 294 296 292 293 292 293 290 289 293 285 283 284 281 283 282 282 285 291 293 297 296 297 296 294 295 295 294 296 297 297 298 300 302 302
311 308 310 307 308 307 309 310 309 309 306 298 291 286 284 289 286 292 289 292 290 289 289 293 293 289 288 290 291 293 295 293 292 293 290 292 292 291 294 294 292 294 292 289 291 285 286 285 289 292 290 290 292 291 293 295 287 291 290 288 291 294 290 280 279 280 279 282 283 288 287 292 294 295 298 298 293 295 293 292 292 294 297 296 299 304 303 303
307 308 304 307 308 308 308 310 309 308 304 296 290 285 291 291 292 294 293 291 291 293 291 286 287 288 286 286 289 291 292 295 291 292 288 293 289 293 291 292 295 292 295 295 288 294 287 286 289 291 290 292 290 289 292 290 293 291 286 291 290 294 296 289 283 281 282 281 284 284 285 288 288 287 298 295 295 296 295 295 294 295 295 296 302 304 304 307
305 306 306 306 308 308 309 311 309 306 301 294 288 290 295 292 292 292 294 292 293 294 291 289 288 293 287 288 287 290 292 291 289 291 290 291 288 297 293 293 294 294 295 294 292 291 293 284 287 287 290 292 290 292 293 293 291 292 292 298 291 285 284 285 286 278 279 278 282 283 283 284 288 290 295 293 294 296 296 295 294 295 296 299 301 302 302 302
306 304 298 305 308 308 309 311 307 302 296 289 288 288 294 294 293 293 294 295 297 294 290 291 289 290 292 288 290 291 291 287 291 289 288 290 287 294 293 295 293 294 295 293 291 291 293 286 284 289 290 292 293 294 287 289 293 293 290 290 290 291 289 285 285 286 286 282 278 282 281 284 290 292 293 294 295 298 297 293 294 296 298 299 300 301 303 305
302 299 296 306 307 309 310 309 303 299 294 286 288 290 294 292 290 292 295 295 292 293 291 291 292 288 290 291 291 288 292 291 290 290 291 292 290 294 292 296 294 292 293 293 295 296 288 291 284 288 291 290 287 290 289 291 287 288 289 287 291 288 289 290 287 285 285 282 281 282 281 286 294 293 294 296 297 296 295 296 297 297 298 299 299 302 304 305
305 300 297 307 307 309 309 304 297 292 290 293 296 292 290 291 290 293 296 299 294 292 292 293 292 290 291 288 289 293 290 291 291 289 291 291 291 287 294 295 295 291 294 294 294 293 288 286 285 286 286 286 290 290 289 292 294 291 290 287 290 286 285 283 282 283 280 284 279 279 280 289 296 290 294 296 295 294 294 294 296 296 296 297 299 300 302 306
298 291 294 306 308 308 302 293 294 297 293 289 289 293 291 296 294 293 294 293 299 293 294 295 293 294 292 291 293 292 291 289 290 291 292 290 293 294 296 296 294 294 292 288 291 293 293 290 288 284 287 288 289 289 287 287 288 290 289 290 295 291 291 287 282 283 282 281 282 283 280 286 296 291 290 292 293 292 291 291 294 294 295 296 297 299 300 302
296 292 304 306 309 306 298 292 294 294 290 294 293 292 293 293 293 294 293 294 294 294 295 294 293 292 292 293 292 292 293 289 291 289 292 293 294 295 295 293 294 293 295 290 292 289 292 288 286 285 288 289 289 288 288 287 289 291 291 291 290 288 291 290 289 289 285 282 282 283 280 287 296 292 290 290 290 289 289 288 291 293 294 295 296 299 299 301
295 296 297 306 308 305 295 286 287 289 291 292 293 293 293 293 294 290 293 295 295 292 294 292 290 294 293 293 293 291 294 287 291 292 291 293 291 293 292 293 295 292 293 290 291 295 287 287 288 283 283 285 287 289 290 291 290 289 290 291 292 292 288 285 285 286 285 284 286 284 280 287 297 289 291 289 290 291 292 292 290 292 296 297 297 299 300 301
294 296 298 301 305 302 292 294 291 289 289 287 290 290 291 292 292 292 294 293 295 294 294 292 295 293 292 295 294 295 295 294 288 293 294 291 293 291 293 294 296 294 294 296 296 297 289 288 287 282 279 277 277 279 282 285 287 290 287 289 290 291 289 286 285 285 283 285 284 284 285 292 292 292 292 293 293 293 293 293 291 292 296 296 299 300 300 301
287 285 291 296 299 298 298 296 298 293 289 288 287 289 292 290 292 293 294 295 294 295 294 294 293 296 293 293 291 291 291 294 293 289 290 290 291 291 293 295 295 296 294 295 294 295 287 288 288 288 285 284 286 288 292 294 289 287 287 288 288 290 291 292 289 286 283 285 282 286 289 290 290 291 291 295 294 294 294 295 295 295 294 298 300 301 301 301
293 286 287 286 293 294 291 296 294 294 290 293 287 290 287 291 291 292 296 292 295 294 294 295 294 292 291 293 291 290 293 291 289 292 291 292 290 291 291 294 295 294 293 294 295 292 288 287 288 289 289 291 292 291 292 293 289 290 289 287 290 288 289 287 286 285 288 285 281 288 290 287 290 292 294 295 295 294 295 296 296 297 298 299 299 299 295 296
285 289 291 293 288 286 287 289 294 293 295 293 291 292 290 290 289 287 293 293 295 296 293 292 293 295 293 293 292 287 290 290 291 289 292 292 291 291 291 293 292 293 293 295 296 293 288 287 290 289 289 292 292 291 291 292 293 292 291 290 288 288 287 286 287 291 289 286 285 290 291 288 291 293 295 297 297 297 297 296 297 298 298 298 297 296 297 298
291 287 290 294 288 288 292 294 295 294 292 292 292 291 288 290 289 292 291 291 293 293 296 287 290 294 294 296 293 290 290 285 285 291 287 287 289 288 287 290 292 294 294 293 292 291 291 287 290 289 288 290 290 289 290 292 289 289 291 291 290 289 288 289 290 292 292 290 293 293 293 293 294 295 296 297 298 296 295 294 294 295 296 297 296 296 297 298
285 286 285 291 291 290 293 293 292 292 289 292 288 289 290 290 290 290 291 292 287 292 295 292 292 294 294 295 294 290 292 293 292 287 290 289 286 290 290 293 290 290 292 291 293 291 290 287 290 287 286 286 288 286 287 289 288 286 288 290 290 290 289 290 291 292 292 292 293 292 291 292 297 298 297 295 293 293 294 294 296 297 298 297 296 296 297 298
292 293 294 288 287 288 291 292 290 290 288 290 289 290 290 291 291 293 292 293 294 292 293 292 294 292 293 295 294 294 295 295 296 295 292 292 288 293 291 289 293 288 290 289 289 289 290 287 286 287 284 284 283 285 284 284 285 285 285 286 287 288 286 289 288 292 291 289 290 290 288 290 295 299 296 295 294 294 295 297 297 297 297 296 296 298 299 299
294 297 296 292 286 289 288 291 291 289 286 290 291 291 290 291 293 294 290 293 293 295 297 296 294 293 290 292 292 294 298 296 296 296 295 294 295 294 295 293 293 291 288 289 290 290 288 287 285 285 283 284 282 283 282 284 284 283 283 286 288 289 291 292 293 293 293 294 290 287 289 295 297 295 294 293 294 295 296 297 298 299 300 298 297 298 300 300
Wind_Speed
23 23 22 20 20 20 19 19 19 19 20 19 18 18 17 17 17 16 15 11 12 14 11 11 12 12 12 13 13 12 10 5 3 3 2 10 2 13 11 6 3 7 5 1 1 1 4 3 4 2 3 3 2 3 1 1 1 2 3 3 3 2 4 6 7 7 3 7 9 10 12 11 10 5 4 3 3 2 4 5 1 1 3 2 4 2 2 7
23 23 22 21 21 21 21 20 20 19 19 19 19 18 17 17 16 16 14 13 12 13 12 12 13 13 14 13 13 12 6 4 2 3 15 6 14 13 15 16 4 7 7 2 4 4 3 5 3 2 5 4 0 0 1 2 2 2 2 3 3 3 2 3 3 5 3 5 12 10 9 9 9 11 5 7 7 5 5 6 3 4 5 4 2 2 6 6
22 23 22 20 21 22 22 20 21 19 19 17 18 18 17 16 15 15 14 13 11 12 12 13 13 13 13 14 14 12 7 4 1 9 18 13 11 14 13 12 8 10 8 4 4 5 6 5 2 5 2 3 1 2 2 1 2 1 3 5 2 3 2 1 2 6 2 5 12 10 8 4 5 6 6 5 7 4 8 8 6 7 9 9 6 4 9 9
22 21 22 20 21 21 22 21 21 19 18 18 16 16 16 16 15 15 14 12 13 11 13 12 13 12 12 13 14 7 4 3 5 7 4 9 20 17 13 10 10 10 4 3 3 4 3 4 1 5 3 4 2 1 3 2 2 2 3 4 3 4 3 3 3 3 2 3 10 9 7 5 5 4 8 5 6 8 9 8 10 11 10 10 9 9 12 12
22 23 23 21 21 22 23 21 20 19 19 17 15 15 16 14 15 15 15 15 14 13 13 13 13 12 12 13 14 9 6 1 5 7 1 4 9 20 18 11 10 7 4 6 6 4 3 3 3 1 3 4 2 3 2 2 3 3 2 4 2 2 1 3 2 2 2 2 8 10 12 9 6 3 7 9 9 6 9 10 11 7 9 12 12 11 14 15
22 22 23 21 21 22 22 21 19 20 20 19 17 16 15 15 14 14 15 15 15 14 14 14 14 13 13 13 9 5 4 5 0 2 2 6 10 14 14 12 8 7 8 6 4 5 5 3 4 4 3 4 7 7 4 1 2 5 2 1 1 3 1 2 2 2 3 5 9 12 7 9 10 6 4 8 12 2 4 5 4 2 4 6 9 12 14 16
22 22 23 22 20 21 21 20 19 21 20 20 18 15 15 15 15 14 14 15 15 15 14 14 15 15 16 12 5 5 4 6 2 1 3 4 11 13 12 10 8 8 7 6 5 6 6 6 9 5 3 1 1 1 3 3 1 4 3 3 2 2 3 1 1 2 2 6 7 4 8 9 9 9 3 8 8 5 5 4 2 1 5 10 12 12 16 18
22 21 22 21 20 20 20 20 20 20 20 18 19 17 16 17 15 15 14 15 15 16 15 16 15 17 17 9 9 4 2 8 4 2 5 8 10 11 11 6 7 7 8 9 9 8 7 8 11 3 6 6 4 7 5 4 2 3 3 4 3 1 2 2 1 3 1 1 3 5 9 4 4 1 5 9 10 5 4 4 4 4 6 7 9 12 12 13
23 22 21 20 19 18 19 19 19 20 19 19 18 19 18 17 15 15 14 15 16 16 16 15 16 18 8 5 7 6 8 3 1 4 5 7 8 10 11 7 5 9 6 4 6 6 8 7 3 6 4 6 2 6 4 8 6 4 3 6 4 3 4 4 5 2 2 2 3 8 4 3 2 1 6 7 4 3 4 4 4 3 5 7 10 11 12 13
23 22 21 21 19 19 19 19 18 18 18 19 19 19 19 18 15 14 15 16 16 15 15 15 16 15 5 6 4 9 5 4 2 4 5 7 7 7 4 4 7 6 8 4 5 7 9 5 9 6 2 3 3 1 2 4 1 5 8 5 5 3 3 0 3 3 1 2 3 6 6 3 1 2 7 3 3 2 4 4 2 5 7 7 7 9 9 10
23 22 21 20 20 20 20 19 18 18 20 20 20 20 18 17 15 15 15 15 15 15 15 16 15 12 5 4 12 10 2 4 2 4 5 6 7 8 7 6 6 6 5 4 6 8 4 3 4 4 2 2 6 1 2 2 7 8 12 10 8 5 5 5 6 4 4 4 3 3 5 3 2 1 6 4 3 1 6 5 4 4 6 6 7 7 7 8
24 24 23 21 21 21 20 19 18 19 19 20 19 19 17 16 16 15 15 14 14 15 16 17 17 6 2 6 10 4 1 2 5 3 4 3 4 1 5 6 7 4 6 7 6 3 2 4 7 5 3 6 5 5 2 3 5 9 4 5 3 3 5 3 4 3 4 3 2 1 5 3 4 9 5 4 2 3 5 5 5 6 5 5 6 6 7 8
24 24 23 22 22 20 20 19 19 19 19 19 18 17 17 16 16 16 15 14 14 15 15 16 10 4 4 7 6 2 1 4 6 6 4 4 5 4 4 3 4 2 2 2 4 4 4 5 7 6 2 1 4 2 7 2 4 3 1 4 5 4 3 2 1 1 2 2 0 3 5 6 13 13 5 2 1 4 4 7 7 6 5 5 5 6 7 7
24 25 23 22 22 20 20 20 20 20 19 19 18 18 18 17 17 15 15 13 14 15 14 15 6 4 5 4 1 2 1 4 7 6 4 3 3 2 5 5 4 3 2 4 3 1 5 0 2 5 2 3 4 4 7 4 2 6 3 3 3 6 5 3 1 2 4 1 2 3 6 2 1 5 4 2 3 5 6 7 7 6 6 5 6 6 7 9
23 24 24 22 21 21 21 22 21 20 20 19 18 18 18 17 16 15 14 14 15 14 13 9 3 5 5 2 1 3 4 3 6 4 5 5 5 5 4 3 7 5 4 4 3 1 2 7 7 5 3 2 7 6 5 2 2 2 7 6 1 6 3 2 3 1 4 3 2 5 6 8 4 4 4 2 4 5 7 6 6 6 7 7 6 7 7 8
24 25 25 23 21 21 22 21 20 19 19 19 19 16 16 16 15 15 14 12 15 14 8 9 6 5 4 6 2 3 3 5 5 4 2 1 2 3 5 7 3 4 1 5 2 2 3 2 3 2 5 3 6 6 6 5 3 1 4 4 7 3 2 2 3 2 3 2 2 7 4 2 2 3 3 2 4 5 7 7 6 6 7 7 7 7 7 6
25 24 25 24 22 22 22 21 19 20 20 18 17 15 15 16 15 14 13 14 10 4 5 6 6 2 6 1 4 5 4 2 2 4 2 2 2 10 8 5 4 5 6 4 1 1 4 2 1 1 3 4 2 7 8 8 5 6 2 2 1 7 5 5 4 1 2 3 8 4 5 7 3 1 4 2 1 2 5 7 8 7 5 6 6 6 7 8
24 24 25 24 23 22 21 21 20 20 19 19 17 18 16 16 16 14 10 6 3 4 2 2 3 3 7 4 6 6 3 4 3 4 3 2 2 6 4 5 2 6 6 7 2 2 2 3 3 4 4 4 4 10 10 11 9 7 6 3 3 3 5 1 6 3 1 1 5 4 8 13 8 4 5 5 2 3 6 5 5 5 5 5 6 7 9 9
24 24 24 24 23 22 22 21 22 21 22 20 20 20 19 14 7 6 9 6 10 7 7 10 11 14 6 12 2 4 1 2 6 5 5 6 1 3 5 4 6 9 4 3 2 2 1 3 1 5 9 8 10 11 10 4 8 13 15 11 7 9 8 5 1 3 2 8 8 8 11 12 12 12 10 6 4 5 7 5 6 7 6 6 6 7 7 8
25 24 25 24 23 21 22 22 23 23 25 20 17 14 10 9 7 7 3 4 6 5 5 13 4 3 5 2 8 2 2 3 6 2 4 1 6 4 5 2 3 4 7 6 4 3 2 8 9 10 9 6 5 4 2 3 5 3 2 1 2 4 2 2 1 3 2 2 11 11 11 10 12 11 8 4 3 5 8 9 9 8 7 7 7 8 9 10
24 24 24 25 24 22 22 23 23 23 23 14 17 12 10 19 19 13 14 5 1 3 1 19 5 2 3 5 3 12 11 3 3 4 5 2 1 10 0 3 5 4 1 3 4 1 2 8 10 5 3 9 7 5 6 6 1 7 6 5 3 4 4 2 2 2 1 3 2 2 6 14 16 13 11 7 5 12 11 11 11 10 9 8 9 9 9 11
25 24 24 25 24 23 21 22 23 21 15 9 11 4 3 2 4 2 14 9 1 1 3 8 1 4 1 1 2 2 1 6 6 4 1 3 8 7 3 4 7 8 2 4 3 4 5 10 2 4 4 8 6 4 2 4 5 2 6 4 3 3 3 2 1 1 2 2 5 2 6 12 13 12 12 11 12 11 10 12 12 9 9 8 7 9 8 6
25 25 25 25 25 24 21 21 20 17 9 10 8 2 2 2 3 1 2 10 7 2 3 7 7 2 4 2 2 3 4 6 8 6 6 2 6 1 9 6 6 5 3 5 9 5 5 7 2 5 7 8 4 3 5 5 3 4 4 6 8 4 6 5 3 3 1 2 2 2 5 10 10 10 13 12 10 8 6 7 9 7 9 9 9 7 7 8
25 25 25 26 26 24 25 19 17 12 10 12 5 5 1 1 1 1 7 6 7 2 1 2 2 4 7 9 6 7 6 2 6 11 1 6 9 4 6 5 8 6 7 8 8 9 4 2 3 5 8 10 8 4 8 7 6 1 3 5 4 4 4 3 4 3 1 1 1 3 7 11 8 10 10 4 1 4 9 7 9 10 10 9 5 6 7 9
25 25 26 26 26 26 22 22 13 11 9 8 7 5 3 3 1 4 7 5 4 4 3 1 1 3 3 2 2 6 2 4 2 3 3 6 9 5 3 1 4 7 7 5 4 4 2 1 3 4 6 8 9 6 8 8 7 4 5 5 2 5 8 3 8 7 4 4 2 0 3 6 2 6 10 1 2 6 4 5 10 10 8 7 9 11 8 9
24 25 26 27 27 25 25 13 11 11 13 11 5 3 4 3 4 2 2 4 10 4 1 8 3 7 5 3 3 1 4 6 1 1 3 2 1 4 4 2 1 9 8 8 6 1 1 1 4 8 8 3 6 8 7 8 7 5 5 6 3 5 7 9 8 4 4 4 2 2 7 4 2 2 3 1 3 8 4 7 11 8 6 6 8 7 6 7
26 26 27 26 29 28 17 7 12 15 13 10 7 4 4 3 3 1 5 3 7 7 9 3 1 2 1 4 7 6 11 7 2 2 1 3 4 3 8 5 3 5 2 3 2 5 4 4 3 2 6 7 5 6 4 9 5 7 3 4 7 9 9 9 10 6 2 4 1 1 2 6 7 6 2 1 4 6 6 9 11 9 7 6 6 6 6 5
27 27 26 28 31 24 3 12 16 18 9 2 5 6 4 4 2 2 1 7 6 8 7 4 2 2 1 2 4 6 4 14 8 5 2 1 2 3 1 11 11 9 5 6 8 3 3 6 5 7 4 5 9 4 7 8 7 1 1 2 6 6 6 7 6 3 1 2 3 4 1 3 7 3 3 0 5 9 10 10 11 8 4 5 4 4 4 5
28 27 27 27 25 14 12 11 16 15 6 4 4 6 3 4 3 4 3 5 2 4 3 8 2 3 3 3 6 3 3 5 1 6 1 3 6 2 7 6 4 9 4 2 4 2 3 5 6 4 8 8 2 3 2 6 9 1 4 7 6 6 6 3 4 4 2 3 6 7 1 4 9 3 3 1 3 8 8 9 7 2 3 2 2 1 2 2
29 27 27 28 16 11 7 7 7 3 5 5 6 6 5 3 6 8 6 6 7 6 3 2 6 10 7 12 5 3 8 1 2 5 2 6 3 5 5 1 6 8 3 5 6 1 1 1 2 2 4 3 6 5 1 4 4 11 7 10 7 5 3 2 2 1 2 4 4 5 2 3 4 3 7 6 6 6 7 4 1 1 1 3 2 2 1 2
31 28 26 23 11 7 10 8 9 3 5 6 7 8 5 2 7 8 9 2 6 3 2 5 7 9 15 17 13 2 3 3 4 11 7 2 4 5 5 5 4 4 3 3 3 1 2 2 2 1 1 3 1 7 7 2 5 7 4 6 9 5 2 2 1 1 4 5 3 2 1 2 7 3 4 4 3 2 3 4 1 5 4 3 2 1 1 2
30 29 27 15 9 9 10 11 11 6 6 9 9 6 7 9 3 11 6 5 10 8 9 11 4 11 18 13 5 5 8 3 3 10 13 10 9 9 8 9 7 5 5 8 6 2 3 2 1 2 2 1 5 8 4 2 3 2 6 9 8 4 3 4 3 6 8 5 2 2 1 2 12 9 3 3 7 5 6 5 3 3 2 2 2 2 1 2
31 29 27 12 14 8 2 8 9 7 9 9 6 3 7 10 10 12 4 9 3 9 6 5 10 11 13 13 9 7 3 9 5 3 6 2 9 5 3 2 8 3 7 3 4 3 1 2 0 2 2 4 5 9 4 3 6 4 11 10 8 6 5 5 3 2 3 1 1 1 1 5 5 7 13 16 9 2 4 7 5 4 5 4 2 2 3 3
31 30 16 12 10 5 5 10 8 10 11 8 7 6 2 9 10 8 7 5 3 4 9 6 9 9 18 14 13 13 8 4 8 5 4 8 7 8 6 1 5 3 4 6 9 8 3 3 6 9 4 4 4 3 6 7 12 8 3 7 5 4 4 5 4 7 4 1 2 2 1 4 3 2 3 4 3 3 2 2 3 4 6 5 5 6 6 5
31 20 13 9 3 2 9 10 11 13 7 8 7 10 14 12 10 15 12 8 0 2 7 10 16 14 9 5 2 6 2 5 3 8 4 10 10 9 11 10 5 3 3 9 2 1 10 2 3 5 1 2 5 2 1 6 4 1 1 3 2 5 0 2 1 1 2 2 1 1 5 3 4 5 7 5 5 6 7 6 4 8 5 3 5 4 3 3
22 10 13 8 7 5 6 8 10 10 10 8 9 9 14 15 10 11 7 8 4 8 9 11 8 13 8 4 3 9 3 2 8 6 3 7 7 10 9 6 8 9 8 8 5 5 3 5 3 1 1 1 2 2 1 2 7 6 4 5 1 4 8 6 2 1 2 1 4 3 5 6 5 8 13 1 1 5 2 4 3 7 3 2 5 4 3 3
14 13 9 9 8 8 8 9 10 7 6 9 10 13 15 2 2 9 5 11 8 18 15 16 10 11 12 11 9 12 6 6 6 6 7 4 3 8 9 6 6 10 8 5 2 2 7 3 2 1 2 1 1 1 1 4 3 6 4 5 3 1 1 1 3 1 1 3 2 3 6 6 2 4 2 3 5 7 4 5 4 4 2 4 5 4 4 3
13 11 10 9 8 9 7 8 12 5 4 8 11 18 5 9 2 5 6 12 12 12 13 11 2 2 10 9 7 11 6 8 10 4 7 10 3 9 7 6 5 11 12 3 4 3 4 2 1 1 0 1 2 2 4 2 2 2 0 2 5 3 4 1 1 2 3 2 2 4 3 5 6 7 1 2 7 9 6 5 4 6 5 7 6 5 4 3
10 11 10 11 9 10 8 8 9 8 6 8 11 16 5 1 4 6 7 11 4 8 12 2 8 5 4 12 7 7 12 10 12 8 7 6 7 8 14 9 6 6 8 6 3 2 1 3 1 1 3 0 1 2 6 4 1 2 1 2 3 2 1 5 3 1 1 3 0 2 3 6 7 7 4 7 3 9 5 4 7 8 6 6 5 4 5 4
12 6 4 6 9 9 10 10 8 7 7 12 17 7 4 5 1 2 7 19 6 8 5 9 4 8 5 4 12 11 8 5 12 7 7 5 6 4 7 9 6 8 7 2 2 4 4 2 2 2 2 1 4 4 7 9 9 4 4 4 2 1 2 2 2 1 2 2 2 3 4 3 3 5 8 13 10 2 2 4 4 5 5 4 3 4 4 4
4 4 5 9 11 12 12 9 11 13 14 10 6 4 1 5 4 5 3 5 5 6 4 8 8 10 7 8 4 4 6 7 8 8 6 6 11 6 8 10 8 8 5 3 4 3 3 2 4 4 3 5 2 4 3 3 2 3 7 8 9 6 5 5 6 4 0 2 3 3 6 0 2 3 8 8 1 1 2 3 3 4 5 3 3 4 4 5
8 8 7 13 15 17 15 14 8 8 2 10 7 4 5 5 8 10 5 2 3 4 3 6 2 5 8 9 10 10 8 7 5 6 5 8 11 8 3 11 7 14 11 9 11 1 3 3 5 4 3 3 2 1 1 1 1 1 2 3 4 3 2 3 6 4 1 0 3 0 2 4 2 2 3 4 3 3 2 2 4 4 5 3 3 3 3 2
6 3 6 15 15 18 15 11 7 6 4 2 4 2 3 2 5 5 9 5 6 1 4 3 8 8 3 4 4 7 13 6 13 12 9 9 5 9 1 7 10 12 7 2 6 3 3 3 4 3 2 3 2 1 2 1 0 2 3 1 4 7 9 5 3 3 4 4 1 1 3 5 1 1 3 4 4 4 3 4 5 5 5 3 4 4 4 4
4 9 8 8 11 10 13 14 14 11 9 3 2 3 3 1 6 8 7 9 5 5 6 5 3 3 6 2 8 11 11 4 6 4 2 1 4 4 8 7 16 9 11 8 10 8 4 2 7 4 2 1 1 1 1 1 1 4 4 6 6 3 6 3 4 0 2 6 6 5 7 9 1 2 2 2 3 4 5 5 5 6 4 2 4 5 3 3
4 4 3 8 8 6 11 8 15 10 9 6 9 4 5 3 3 2 6 8 1 4 7 4 4 6 5 3 5 4 11 8 3 6 1 3 4 3 1 8 12 11 7 7 3 9 6 5 9 5 6 7 7 7 7 4 9 4 1 2 6 9 9 4 3 3 7 4 4 4 7 10 3 2 1 2 1 3 4 4 3 6 4 7 8 6 4 3
1 7 0 7 5 7 2 4 3 10 12 11 8 3 1 3 1 1 2 4 0 3 2 6 1 6 6 9 6 7 10 3 2 5 8 5 3 1 1 5 11 8 5 17 12 11 2 1 7 11 14 12 11 9 11 7 6 6 7 13 13 13 11 4 3 2 7 4 6 10 11 13 4 3 3 4 4 6 6 6 6 5 6 6 5 5 4 2
0 2 5 7 4 8 1 1 5 10 9 13 7 9 7 6 5 2 3 5 5 5 3 1 7 10 6 12 9 8 9 8 3 5 11 10 1 2 2 3 2 4 2 3 14 7 2 3 7 9 11 11 12 11 5 12 14 16 17 16 14 12 12 11 11 11 6 6 6 8 13 12 14 8 5 7 8 6 3 3 4 4 8 8 6 3 3 4
2 1 3 1 1 10 11 9 10 11 9 15 3 6 10 9 8 9 1 3 2 3 6 2 5 12 16 16 11 7 8 7 5 6 4 2 6 2 5 2 4 2 2 1 4 9 4 7 5 7 12 13 8 5 8 9 9 7 10 9 12 13 12 13 13 14 8 10 11 17 15 15 16 10 11 9 8 9 10 8 3 1 0 1 4 6 6 8
2 1 1 3 2 1 7 4 12 10 13 16 3 8 9 11 13 8 6 6 3 5 4 6 12 10 13 12 11 7 12 7 8 7 3 5 6 4 3 4 2 2 1 3 3 2 9 8 5 8 12 13 6 6 5 10 7 6 8 12 12 12 13 18 18 16 13 12 13 19 16 16 16 5 10 8 5 1 2 2 0 5 8 9 7 6 8 7
2 2 2 1 4 3 6 11 10 11 11 16 10 12 11 10 11 3 1 7 6 9 2 7 12 9 11 12 13 10 14 17 17 12 4 11 1 3 5 3 5 2 0 4 3 5 6 4 6 3 5 8 3 3 2 4 10 6 3 5 9 11 14 16 16 15 11 11 13 17 17 14 10 9 8 4 3 3 1 3 7 10 8 7 7 8 9 10
2 2 0 4 3 1 5 9 10 10 8 12 11 9 8 10 9 4 3 3 3 8 7 8 10 8 3 10 12 12 15 17 10 13 15 14 12 9 9 4 9 8 5 3 3 0 2 3 3 4 4 5 0 5 2 1 1 2 3 7 9 11 10 10 11 12 12 14 18 18 14 10 17 5 5 7 7 7 8 10 7 6 8 8 10 11 12 13
1 2 1 1 3 2 4 8 8 7 9 11 12 11 8 13 4 6 5 1 2 2 4 10 12 10 4 7 14 13 5 3 4 4 13 5 2 9 3 7 15 13 7 10 3 4 6 4 5 6 9 8 0 2 6 5 2 3 5 10 16 15 16 15 15 14 13 16 14 10 14 16 13 6 9 8 11 10 9 7 6 7 10 11 13 13 13 13
Wind_Direction
182 180 181 180 176 174 176 179 184 186 186 187 188 187 177 174 172 169 171 160 169 169 161 156 150 144 142 136 131 132 130 107 124 138 178 236 158 228 244 245 212 175 151 97 185 250 277 286 242 18 194 213 12 206 57 86 24 236 212 158 183 87 203 159 187 187 12 150 160 177 187 177 166 160 138 174 155 59 123 212 102 199 235 70 81 23 100 143
182 181 179 177 175 174 178 180 183 186 187 187 189 186 177 174 174 171 172 166 163 169 162 156 152 147 144 140 137 133 110 83 150 198 226 118 209 235 229 235 209 147 137 199 187 191 243 259 250 278 193 184 335 43 314 132 280 215 127 233 190 187 79 176 162 151 153 149 160 172 190 200 171 161 163 197 174 169 168 209 221 221 181 146 159 125 172 172
180 180 179 177 172 174 176 179 181 181 185 187 190 190 179 176 174 172 171 177 163 167 162 162 155 149 145 141 138 135 107 78 339 244 253 177 216 233 232 216 185 168 176 169 215 185 203 272 230 194 236 196 16 146 293 68 294 38 241 194 184 174 76 234 170 158 332 125 143 157 182 240 127 171 133 225 168 173 210 188 201 220 202 188 146 151 166 181
179 178 177 176 172 172 177 180 181 181 179 184 189 183 176 176 174 169 171 174 164 167 164 162 154 144 138 139 129 128 59 94 233 245 237 175 209 221 215 184 179 179 131 52 148 156 69 77 220 239 190 223 121 274 200 101 234 129 228 209 134 145 159 166 215 110 106 298 151 150 134 187 157 155 179 174 170 210 224 220 201 202 204 179 149 159 167 176
178 178 177 175 174 172 176 178 179 178 181 181 181 177 175 173 172 167 168 177 171 166 163 158 151 137 135 128 136 138 138 135 244 199 171 235 209 214 205 173 166 170 182 140 113 92 144 155 162 16 244 180 165 165 211 99 348 155 356 3 21 142 161 86 147 84 108 315 138 134 153 180 117 127 203 181 205 198 214 215 216 218 200 163 158 161 169 177
175 177 177 176 175 172 172 177 177 177 179 181 179 177 173 169 169 168 173 175 173 165 159 157 148 141 129 127 131 120 170 178 101 99 245 270 204 199 182 155 143 146 135 151 159 139 159 184 196 189 208 201 174 189 125 87 6 202 135 19 41 351 44 98 150 158 177 149 153 164 153 109 171 174 193 213 219 60 34 18 352 343 67 112 132 150 173 182
170 174 175 175 174 173 168 171 175 176 177 177 177 175 165 161 168 165 171 174 170 164 159 155 150 139 126 120 110 109 200 288 337 215 299 148 160 147 133 127 143 149 166 126 152 162 184 190 203 199 149 70 169 185 117 158 253 294 141 142 109 349 63 14 101 114 225 190 168 119 120 166 168 188 153 214 221 94 64 21 15 45 119 137 147 170 178 185
168 172 172 172 172 170 168 166 171 172 175 174 176 172 159 163 164 166 170 170 169 167 160 156 151 140 140 135 125 171 196 257 233 285 129 93 106 111 109 110 159 163 174 172 160 184 166 192 201 114 208 195 173 176 137 147 206 215 148 176 114 54 35 58 88 163 181 51 59 135 161 159 194 171 132 232 220 168 85 65 78 111 137 155 162 174 183 191
166 169 169 171 172 166 163 165 166 168 174 174 172 171 166 164 164 165 170 170 169 167 161 152 153 153 182 164 158 146 225 224 149 159 111 116 121 120 134 142 213 173 169 126 187 157 168 202 213 196 210 218 200 149 189 176 214 199 70 127 130 102 92 99 115 135 131 103 181 154 141 69 129 358 249 237 129 85 113 97 87 128 158 173 179 177 181 189
164 166 168 172 167 160 159 160 165 168 173 170 169 166 165 164 164 166 168 167 167 164 160 154 152 163 159 144 151 199 198 118 132 135 122 132 127 124 120 132 169 159 143 157 131 141 194 174 202 169 272 52 199 103 86 232 119 98 110 96 107 101 116 255 138 131 85 127 255 180 151 117 110 265 225 110 85 80 163 146 137 180 189 188 183 182 189 191
164 165 167 166 161 158 157 161 165 163 170 164 164 163 158 160 160 164 166 167 165 165 161 160 155 158 161 181 172 203 118 147 102 117 136 159 139 149 160 154 174 178 141 139 189 191 162 147 128 109 290 211 149 95 255 120 120 116 124 108 83 104 80 105 104 121 172 130 282 194 101 76 113 163 247 108 66 181 190 171 177 211 200 192 192 187 192 199
163 165 166 160 157 158 159 162 160 165 167 161 160 160 159 159 160 161 162 166 167 165 167 164 164 169 100 182 210 193 160 68 128 111 116 188 138 147 149 161 165 177 158 163 208 213 190 148 167 164 209 140 178 125 131 170 126 137 171 137 111 143 118 36 123 123 287 132 201 276 122 199 178 228 188 94 354 165 191 188 192 212 214 192 193 195 197 203
164 164 164 157 157 159 159 156 157 166 161 155 158 153 157 154 157 161 165 164 169 169 167 165 161 219 161 191 232 49 339 115 110 114 88 70 111 55 66 73 105 78 351 193 182 176 149 154 187 155 31 239 128 209 113 111 84 152 61 117 133 171 162 106 151 66 234 92 134 228 212 211 212 218 117 142 183 134 178 209 199 206 206 204 197 204 209 201
164 160 160 158 158 156 153 151 159 164 158 155 154 153 152 153 156 159 162 164 166 168 166 157 167 177 208 210 69 343 110 101 118 125 138 192 125 23 80 38 70 76 359 76 51 100 120 134 131 92 66 109 132 221 138 71 267 171 137 241 208 174 188 103 47 17 188 94 206 250 245 165 159 202 136 140 191 188 204 205 197 198 203 204 205 212 217 216
162 158 156 158 158 156 150 153 160 158 155 154 147 151 146 149 155 155 157 157 161 160 148 132 187 172 203 209 1 44 135 128 155 168 156 172 134 91 61 93 57 49 67 74 109 100 135 138 132 150 99 289 121 147 91 85 24 101 150 197 128 224 133 135 103 341 200 139 247 221 255 249 177 155 134 122 183 203 231 215 208 202 206 209 211 218 223 225
162 159 155 156 156 153 150 153 155 150 154 152 149 147 143 147 154 152 153 156 155 139 141 139 192 261 185 211 141 118 193 174 185 118 144 284 175 113 139 109 152 62 93 60 66 129 69 103 94 74 121 86 173 158 131 125 165 248 256 139 184 224 153 192 172 48 354 132 181 242 267 44 222 92 124 100 165 192 226 233 227 220 214 209 215 220 228 232
163 159 156 154 154 153 151 152 151 152 151 145 141 137 142 149 148 145 147 139 139 131 191 168 160 254 203 27 104 191 188 171 53 130 131 55 84 136 120 98 85 72 79 114 118 191 22 115 279 143 345 163 184 163 161 192 162 186 352 161 43 200 154 214 70 209 24 249 196 204 245 240 74 128 149 155 143 180 226 235 233 230 221 213 213 220 225 230
161 158 154 153 153 154 151 148 148 150 143 141 142 146 143 139 124 98 80 99 132 164 180 14 190 148 254 122 194 189 96 122 178 119 71 354 139 139 102 113 85 119 115 102 15 160 320 135 272 181 146 152 173 188 193 197 174 157 173 143 186 303 242 259 178 138 195 215 239 186 245 258 238 188 194 196 173 240 253 250 247 238 229 222 220 222 227 229
160 157 153 151 152 153 151 147 151 145 139 144 145 140 127 113 115 128 135 157 150 138 179 183 182 193 198 167 120 92 200 122 103 138 147 129 159 104 79 82 127 131 116 159 161 152 109 106 239 164 193 179 192 195 206 90 153 176 182 195 171 181 203 207 30 44 274 188 220 211 226 241 244 238 227 183 165 231 260 264 262 249 236 232 228 227 227 231
157 157 152 149 151 152 152 150 150 145 143 152 148 139 135 141 151 132 181 250 245 162 327 152 196 37 75 104 139 44 113 254 133 356 120 265 137 115 51 102 47 57 142 178 137 157 354 186 194 200 200 171 176 216 17 79 189 143 32 50 210 188 81 37 92 29 308 259 225 225 244 268 265 251 247 235 148 243 250 252 245 240 235 228 221 225 229 229
156 155 152 148 149 151 152 153 152 150 155 162 159 162 168 167 147 169 170 174 348 332 214 151 168 63 60 117 117 151 132 47 9 132 159 111 236 138 42 112 143 153 71 12 119 84 190 213 215 193 142 166 175 116 113 88 147 180 184 198 167 221 197 86 93 39 19 239 216 27 269 260 259 265 260 243 221 256 245 248 246 237 232 230 223 227 223 232
156 155 150 148 148 150 149 152 151 153 157 174 184 210 350 192 325 21 131 139 250 13 324 114 125 101 7 92 168 341 13 103 105 120 100 143 178 181 203 171 168 174 102 136 108 146 200 216 180 99 94 81 80 99 62 133 134 104 200 187 173 199 41 122 103 61 48 186 258 62 265 260 260 264 264 249 240 247 242 240 251 247 231 223 222 229 229 218
155 155 150 147 147 148 147 148 150 147 151 173 201 268 230 59 308 287 101 96 99 322 104 160 163 136 97 38 211 263 160 146 157 197 173 214 143 264 141 158 167 99 127 194 173 155 206 227 138 118 130 124 83 124 135 99 101 163 148 174 211 135 186 200 151 137 58 289 343 4 301 277 268 253 253 249 235 242 241 249 255 249 247 233 223 219 221 228
156 153 150 147 147 145 150 133 124 139 181 189 202 228 359 60 211 270 143 134 131 156 174 212 191 141 162 150 189 184 163 169 139 182 134 165 156 169 143 151 125 143 176 194 190 182 177 46 13 163 164 160 156 160 173 189 201 272 236 194 169 156 221 331 139 136 104 181 283 260 280 277 239 246 249 202 143 268 257 247 245 245 237 250 293 289 243 240
155 153 150 149 147 147 134 125 154 173 161 192 255 248 197 208 255 263 113 87 89 128 283 325 150 257 157 30 113 191 122 74 329 115 176 175 131 130 163 86 140 194 170 150 105 186 185 49 112 112 200 170 148 175 201 189 219 181 230 219 187 187 151 93 118 146 181 224 123 329 267 260 142 233 243 281 291 242 196 238 242 231 216 212 236 242 236 236
154 154 151 149 146 138 131 146 171 161 167 194 219 192 176 192 254 237 131 93 170 128 2 168 134 189 127 175 118 139 155 153 327 258 128 198 31 125 114 123 324 192 139 152 171 164 130 70 218 165 163 173 189 195 184 190 210 194 211 187 169 159 138 140 151 177 196 228 112 322 228 257 115 246 193 232 276 261 243 239 252 236 210 198 228 235 230 231
155 154 153 150 145 139 149 182 150 148 168 224 210 169 174 187 217 121 158 62 195 162 164 75 244 163 311 119 152 139 178 166 102 69 78 349 161 333 160 147 108 39 104 126 61 219 124 119 127 95 139 161 176 223 191 194 182 212 70 159 131 134 148 167 164 208 23 52 118 233 294 261 280 242 86 355 294 271 249 240 244 236 214 214 224 227 231 231
155 156 153 151 150 159 102 123 148 176 184 75 126 159 152 187 154 280 208 128 216 124 168 195 263 347 254 157 222 197 1 127 129 196 332 319 160 90 307 172 180 160 174 152 210 55 152 142 179 140 179 168 204 188 130 192 196 231 122 234 149 159 157 156 172 159 53 232 207 163 212 242 244 249 104 358 274 251 242 232 233 229 199 220 215 216 222 236
157 155 153 147 153 135 114 149 165 173 192 144 129 120 104 123 230 164 167 191 74 107 348 127 256 155 99 156 149 36 140 335 179 125 161 72 22 186 188 170 95 106 24 277 202 132 317 179 194 160 160 198 98 6 258 186 200 121 133 92 88 80 74 143 151 142 162 202 237 163 297 240 264 164 211 55 263 261 246 226 221 170 206 204 228 219 240 232
154 155 149 147 123 123 129 135 178 135 98 135 128 120 116 164 146 180 138 238 141 162 159 96 189 171 159 155 166 117 162 109 32 125 144 150 105 54 25 49 125 121 119 54 65 39 285 358 218 75 214 42 112 47 65 6 48 127 166 110 100 81 95 88 53 136 170 238 228 52 340 286 291 183 209 185 220 231 229 227 117 221 194 220 231 264 273 281
155 152 148 145 147 142 132 155 174 158 138 126 138 138 157 76 183 161 185 193 96 72 84 160 161 142 164 166 177 211 121 78 148 153 134 134 89 69 143 93 49 70 77 86 67 39 89 85 114 64 46 139 63 86 39 49 137 157 147 138 116 85 146 143 132 244 213 233 82 347 63 282 218 245 223 244 351 285 281 279 147 149 158 158 169 188 240 275
152 150 148 155 131 155 159 173 165 140 150 148 145 144 170 140 10 190 180 127 187 180 188 174 191 169 178 169 79 140 146 100 173 171 153 166 146 158 188 164 170 143 190 179 171 117 93 116 56 38 243 214 165 100 55 62 256 227 154 163 164 153 167 183 178 205 211 233 73 29 241 232 238 249 341 298 279 265 216 244 196 139 181 210 216 224 269 269
149 148 153 142 147 179 115 120 126 142 144 161 140 176 178 158 184 200 135 178 217 137 186 122 161 176 159 151 157 133 9 169 184 253 108 105 159 165 42 151 184 146 184 133 90 158 179 115 25 78 145 226 232 159 130 183 208 209 178 172 177 164 180 198 176 349 332 26 12 61 81 270 303 279 242 251 252 263 241 232 255 255 263 274 297 323 310 287
149 148 148 162 162 147 121 126 130 135 145 162 150 131 142 182 212 188 152 221 108 352 104 128 111 120 158 178 164 163 147 4 181 168 189 153 171 165 195 303 158 136 70 156 170 182 172 243 202 159 186 132 212 267 182 171 170 201 6 186 194 164 164 188 173 203 212 169 93 230 206 235 173 209 34 279 347 278 269 285 282 269 269 282 301 290 277 273
148 144 133 140 89 71 143 134 140 153 142 157 161 172 172 201 204 171 189 168 216 114 117 138 136 148 173 33 91 209 35 145 223 140 158 155 184 182 178 188 211 117 134 149 255 132 203 197 37 360 342 8 194 265 324 93 59 28 223 16 198 198 54 221 50 350 114 143 156 179 235 290 236 355 273 244 262 261 251 255 244 262 238 243 272 259 255 256
138 142 145 150 143 167 147 140 143 161 160 168 160 185 200 195 188 179 178 103 121 136 122 116 107 155 162 128 337 190 272 109 184 167 179 198 180 184 181 181 181 193 165 186 132 181 35 221 4 340 179 205 329 316 248 291 185 182 142 203 167 30 105 110 94 80 337 353 245 141 268 254 265 279 270 114 295 252 196 241 227 252 228 227 254 251 244 235
137 141 152 155 156 161 152 146 151 153 191 177 178 195 209 122 5 115 151 148 144 130 140 143 189 165 175 181 173 191 168 103 160 187 185 144 218 204 180 212 171 190 219 137 193 266 176 133 24 12 158 20 331 330 331 52 309 106 209 179 115 242 27 162 219 103 231 236 236 120 232 250 56 281 55 295 220 241 190 221 225 257 228 234 230 227 227 205
138 152 128 157 152 146 140 145 144 141 167 193 210 209 41 196 290 103 113 105 148 163 155 159 112 348 173 156 175 171 176 190 169 214 171 177 234 165 179 187 191 185 194 327 177 208 121 94 105 329 263 357 100 254 98 14 47 307 198 134 164 167 209 217 131 197 169 221 251 199 271 275 226 235 345 246 229 244 197 203 226 238 210 217 216 228 238 231
126 131 148 162 139 144 140 150 144 139 163 192 209 214 164 340 98 140 168 121 119 145 159 261 149 217 161 179 135 146 158 187 150 187 158 211 219 174 182 173 196 202 178 137 148 105 15 170 84 55 128 306 332 227 192 157 336 91 143 118 347 302 272 158 203 40 200 229 137 245 118 258 174 218 198 269 225 239 228 177 217 221 208 206 199 210 211 205
137 129 145 131 149 138 144 145 126 160 190 198 203 215 86 108 150 183 185 140 172 169 187 154 228 135 177 151 147 166 192 170 162 179 213 143 217 14 213 189 158 167 156 190 130 168 165 351 177 96 282 146 179 203 210 171 165 143 173 177 163 23 313 333 43 158 215 199 204 276 263 240 195 203 192 224 230 169 201 244 237 233 232 214 214 206 202 192
123 97 129 151 154 150 140 128 151 181 196 217 22 81 283 151 167 176 210 358 104 337 156 153 159 162 154 125 184 124 146 165 174 177 199 175 193 194 211 193 148 142 126 93 123 188 114 186 165 126 121 219 208 37 329 316 315 216 175 186 182 143 148 180 210 74 3 213 219 178 249 293 324 127 209 227 22 1 242 257 274 257 256 244 221 240 227 178
140 143 167 164 160 163 149 150 197 197 223 198 180 149 150 130 144 169 175 248 52 133 344 95 3 121 146 170 150 157 149 160 180 185 214 200 207 235 149 170 152 147 156 174 183 189 131 101 100 168 206 175 321 348 8 347 319 308 316 225 167 187 96 200 215 189 80 114 54 340 345 268 109 167 270 277 277 269 310 273 269 301 296 258 248 266 263 304
125 77 93 156 171 170 154 166 163 178 216 203 39 49 36 107 135 165 164 227 157 268 111 136 173 138 318 114 130 159 159 167 169 193 185 212 217 205 71 171 138 157 152 48 51 228 98 116 96 43 73 312 281 198 173 143 262 265 259 226 152 196 200 211 233 140 159 122 182 195 236 259 141 120 243 259 289 296 277 249 262 285 293 254 228 226 230 219
67 121 127 183 190 203 163 170 174 202 193 98 160 141 3 200 163 147 199 186 171 174 155 135 48 314 140 121 145 166 171 151 245 226 241 112 205 52 149 166 158 163 163 188 178 186 167 218 133 137 109 121 322 137 94 152 96 233 222 185 216 75 70 92 102 308 200 200 202 187 241 262 106 316 242 251 247 258 250 229 202 248 270 227 208 227 219 242
94 22 59 157 202 212 194 195 191 176 159 153 168 170 171 122 318 224 169 170 68 149 120 187 157 150 109 161 120 85 181 194 130 226 41 167 193 95 229 170 183 179 185 160 136 157 194 163 156 166 159 175 185 193 189 202 214 195 290 98 181 175 146 144 188 158 231 165 183 218 247 254 56 268 234 201 244 267 235 233 211 221 245 186 197 198 206 220
131 130 243 141 193 229 313 345 170 165 163 161 180 199 125 138 129 203 203 116 278 107 20 115 26 117 117 140 138 158 187 247 151 173 183 196 160 295 154 203 196 200 222 140 140 148 173 125 202 191 196 201 206 207 206 162 71 179 212 188 193 202 190 180 47 144 214 167 187 214 225 256 194 181 227 230 196 221 207 211 220 214 230 245 207 189 198 224
56 101 155 150 99 218 235 351 145 162 179 164 173 162 183 175 135 124 269 176 209 162 101 100 161 152 181 157 163 174 185 162 12 148 191 172 32 102 63 159 251 12 134 142 145 100 106 204 203 215 225 223 214 214 173 169 189 197 197 199 197 181 179 183 189 213 180 104 244 234 237 242 246 145 218 226 231 237 268 260 225 205 212 198 183 202 240 263
95 64 53 353 149 174 182 209 193 177 152 166 167 155 184 153 175 172 71 329 76 263 146 8 221 183 167 170 143 149 164 185 153 201 116 52 117 164 103 53 177 24 327 178 215 134 156 216 208 196 228 225 223 172 162 177 210 211 213 185 165 177 177 190 214 221 133 202 222 233 218 229 253 194 197 202 207 208 212 214 225 218 184 124 196 213 226 229
19 123 142 312 167 340 215 135 167 169 160 178 131 179 186 183 187 171 161 145 166 209 247 162 196 185 175 164 157 145 161 157 230 212 159 162 154 129 110 70 241 80 122 130 220 290 150 227 197 189 220 228 203 163 189 180 176 180 179 174 181 172 187 199 211 214 193 213 224 241 237 225 236 227 202 211 189 311 45 38 124 200 210 202 211 229 232 234
200 154 145 50 67 95 135 135 153 147 173 179 182 197 190 195 178 139 260 162 164 198 57 200 177 162 166 171 175 165 185 194 192 181 187 139 96 183 172 167 138 73 40 163 176 296 197 189 133 171 223 237 196 54 111 209 170 195 174 167 169 178 196 208 217 224 221 251 251 249 258 264 260 233 226 94 101 114 198 236 211 214 193 194 212 224 229 230
10 332 166 132 107 115 127 141 154 166 161 182 200 175 192 193 182 151 147 316 231 169 177 186 121 116 137 181 189 196 192 201 194 182 166 160 178 188 154 225 154 144 165 144 165 9 249 201 73 129 214 239 189 185 151 82 69 151 136 160 168 177 196 211 219 215 202 218 233 246 258 261 260 177 172 164 162 171 199 214 209 210 205 200 214 223 223 226
291 273 286 50 96 120 145 144 148 139 194 193 193 170 187 188 133 163 114 282 47 14 173 132 155 134 169 178 210 210 162 107 60 120 166 162 64 167 185 148 158 156 164 182 168 159 182 127 165 150 206 227 39 182 144 117 132 231 205 197 186 197 199 203 214 215 206 207 224 227 235 236 244 113 199 189 186 200 211 217 214 219 210 205 214 225 229 233